Temperature
21 21 20 19 19 19 22 23 24 25 25 25 25 24 23 22 22 21 21 21 21 20 20 19 19 19 19 19 19 19 19 19 19 19 19 19 19 18 18 18 18 18 18 18 17 17 18 17 17
21 21 20 20 19 21 22 24 25 25 25 25 25 24 23 22 22 22 21 21 21 21 20 20 19 19 19 19 19 19 19 19 19 19 19 19 18 18 18 18 18 18 18 18 17 17 17 17 17
21 20 20 19 20 21 23 25 25 25 25 25 24 24 23 22 22 22 22 21 21 20 20 20 20 19 19 19 19 19 19 19 19 19 19 18 18 18 18 18 18 18 18 17 17 17 17 17 17
21 21 20 19 22 22 23 25 25 25 25 25 24 23 23 22 23 23 22 21 21 21 20 20 20 19 19 19 19 19 19 19 19 19 19 18 18 18 18 18 18 18 18 17 17 17 17 17 17
21 21 20 20 21 23 24 25 25 25 25 25 24 22 22 22 23 23 22 21 21 21 20 20 20 19 19 19 19 19 19 19 19 19 18 18 18 18 18 18 18 18 18 17 17 17 17 17 17
22 20 20 21 22 24 25 26 26 25 25 25 24 22 21 22 23 22 22 21 21 21 20 20 20 19 19 19 19 19 19 19 18 18 18 18 18 18 18 18 18 18 17 17 17 17 17 17 17
21 19 20 21 22 24 26 27 26 25 24 24 24 21 20 21 22 22 21 21 21 20 20 20 19 19 19 19 19 19 19 18 18 18 18 18 18 18 18 18 18 18 18 17 17 17 17 17 17
22 19 21 21 22 24 26 27 26 25 25 25 24 22 21 22 22 21 21 20 20 20 20 19 19 19 19 19 19 19 18 18 18 18 18 18 18 18 18 18 18 17 17 17 17 17 17 17 17
23 19 20 21 23 24 26 26 26 26 25 24 24 24 24 23 21 21 20 20 19 19 19 19 19 19 19 19 19 18 18 18 18 18 18 18 18 18 18 18 17 17 17 17 17 17 17 17 17
22 19 21 22 24 25 26 26 26 25 24 23 23 23 23 22 21 21 20 19 19 19 19 19 19 19 19 18 18 18 18 18 18 18 18 18 18 18 17 17 17 17 17 17 17 17 17 17 17
21 20 22 23 25 26 25 25 26 24 23 23 24 23 22 21 21 20 20 20 20 19 19 19 19 19 18 18 18 18 18 18 18 18 18 18 18 18 17 17 17 17 17 17 17 17 17 17 17
21 22 23 25 26 26 25 25 25 24 25 26 26 25 23 21 20 20 20 20 20 19 19 19 19 19 18 18 18 18 18 18 18 18 18 18 18 18 17 17 17 17 17 17 17 17 17 17 17
23 23 25 26 26 26 25 24 24 24 25 26 25 23 23 22 21 20 20 20 19 19 19 19 19 19 18 18 18 18 18 18 18 18 18 18 18 18 17 17 17 17 17 17 17 17 17 17 17
24 24 25 26 26 26 25 24 24 24 25 24 24 23 22 21 21 20 19 19 19 19 19 19 19 19 19 18 18 18 18 18 18 18 18 17 17 17 17 17 17 17 17 17 17 17 17 17 17
24 23 23 25 25 26 25 24 24 24 24 23 22 22 21 21 21 21 21 20 20 19 19 19 19 18 18 18 18 18 18 18 18 18 17 17 17 17 17 17 17 17 17 17 17 17 17 17 17
23 23 23 24 25 25 25 24 23 24 23 22 21 21 21 20 21 21 21 20 20 19 19 19 18 18 18 18 18 18 18 18 18 18 17 17 17 17 17 17 17 17 17 17 17 17 17 17 17
21 22 23 23 24 24 24 23 23 23 22 21 21 21 20 20 20 20 20 20 20 19 19 19 18 18 18 18 17 17 18 17 17 17 17 17 17 17 17 17 17 17 17 17 17 17 17 16 16
22 22 22 22 23 23 23 22 22 22 22 21 21 20 20 20 20 20 20 20 19 19 19 19 18 18 18 17 17 17 17 17 17 17 17 17 17 17 17 17 17 17 17 17 16 16 16 16 16
22 22 21 22 23 23 22 21 21 21 21 20 20 20 20 20 20 20 20 19 19 19 19 18 18 18 17 17 17 17 17 17 17 17 17 17 17 17 17 17 17 16 16 16 16 16 16 16 16
22 22 21 22 23 23 22 21 21 21 20 20 20 20 20 20 20 20 19 19 19 19 18 18 18 18 17 17 17 17 17 17 17 17 17 17 17 17 17 17 16 16 16 16 16 16 16 16 16
22 21 21 22 22 22 22 21 21 21 20 20 20 20 20 20 20 20 19 19 19 19 18 18 18 18 17 17 17 17 17 17 17 17 17 17 17 17 17 17 16 16 16 16 16 16 16 16 16
21 22 22 22 21 20 22 20 20 20 19 19 19 19 19 20 20 19 19 19 19 19 19 18 18 17 17 17 17 17 17 17 17 17 17 17 17 17 16 16 16 16 16 16 16 16 16 16 16
22 23 23 22 21 20 20 20 19 19 19 19 19 19 19 19 19 19 19 19 19 19 19 18 18 17 17 17 17 17 17 17 17 17 17 17 17 17 16 16 16 16 16 16 16 16 16 16 16
23 22 20 18 18 20 20 20 20 18 19 19 19 19 19 19 19 19 19 19 19 19 18 18 17 17 17 17 17 17 17 17 17 17 17 17 17 17 16 16 16 16 16 16 16 16 16 16 16
23 20 19 20 18 19 19 19 19 20 20 19 19 19 19 19 19 19 19 18 18 18 18 17 17 17 17 17 16 16 17 17 17 17 17 17 17 17 16 16 16 16 16 16 16 16 16 16 16
20 20 19 20 20 19 19 19 19 20 20 20 20 19 19 18 18 18 19 18 18 18 17 17 17 17 17 17 16 16 16 17 17 17 17 17 17 17 16 16 16 16 16 16 16 16 16 16 16
21 19 19 18 19 19 19 19 19 20 19 19 19 19 18 18 18 19 18 18 18 17 17 17 17 17 17 17 16 16 16 16 17 17 17 17 17 16 16 16 16 16 16 16 16 15 15 15 15
22 18 17 17 18 19 20 20 19 21 20 19 18 18 18 18 18 18 18 18 18 18 17 17 17 17 17 16 16 16 16 16 16 16 17 16 16 16 16 16 16 16 16 16 15 15 15 15 15
21 20 17 16 17 18 19 19 19 19 19 19 18 18 18 18 18 18 18 18 18 18 17 17 17 17 16 16 16 16 16 16 16 16 16 16 16 16 16 16 16 16 16 15 15 15 15 15 15
22 20 18 19 18 17 18 19 20 19 18 18 18 19 19 18 19 19 19 18 18 18 17 17 17 17 16 16 16 16 16 16 16 16 16 16 16 16 16 16 16 16 15 15 15 15 15 15 15
Wind_Speed
5 5 3 1 3 4 3 4 2 1 1 2 4 5 7 5 4 3 4 13 16 16 16 20 21 20 19 19 18 19 19 18 18 18 17 17 16 15 15 14 14 14 14 14 15 16 16 16 17
5 4 1 2 4 3 5 4 1 2 3 4 4 4 5 3 3 8 8 11 17 16 16 19 21 20 19 19 19 18 18 18 18 17 17 16 15 15 14 14 14 14 14 14 15 15 15 16 16
4 3 2 4 3 2 4 3 0 1 3 2 3 3 3 4 7 8 9 15 15 13 15 19 22 21 20 19 18 18 18 18 17 17 16 15 15 14 14 14 14 14 14 14 15 15 15 15 15
2 2 3 4 1 4 5 4 2 3 1 1 4 4 3 2 6 8 15 17 16 13 15 20 23 21 20 19 18 18 18 17 17 16 15 14 14 14 14 14 13 14 14 14 14 14 14 14 14
3 4 5 3 5 5 5 5 6 5 3 1 4 4 2 3 8 15 17 17 16 12 13 19 22 21 20 20 19 18 17 17 16 16 15 14 14 13 13 13 13 13 13 13 13 13 13 13 13
4 4 4 3 7 6 4 4 5 5 3 3 4 4 1 3 10 15 15 14 14 14 12 17 22 22 20 20 19 18 17 17 16 15 15 14 13 13 13 12 12 12 12 12 13 12 12 11 11
4 4 1 3 5 6 3 0 4 5 5 4 6 5 2 4 8 13 13 13 12 12 10 12 17 20 20 20 19 18 17 17 16 15 15 14 13 13 12 12 12 12 12 12 12 12 11 10 11
4 4 0 3 4 6 3 2 0 4 4 3 5 6 5 7 11 12 12 11 11 11 10 9 12 14 16 17 19 18 18 17 16 15 15 14 13 12 12 11 11 11 11 11 11 11 10 10 10
4 4 2 5 5 6 3 2 1 1 4 3 2 3 6 16 17 15 13 10 11 12 9 9 9 10 12 14 17 18 17 17 16 15 15 13 11 10 10 10 10 10 10 10 10 10 9 9 9
4 3 7 6 5 5 7 4 2 2 2 2 2 5 13 19 18 19 18 17 15 14 12 9 9 9 10 12 13 12 13 13 12 11 12 10 10 9 9 9 9 9 9 9 9 9 8 8 8
6 7 6 6 7 7 5 4 3 6 5 8 8 12 17 18 16 17 17 17 16 14 13 10 10 9 8 6 8 8 9 10 10 10 11 11 9 7 6 6 6 6 7 6 6 7 6 6 6
5 7 6 7 6 5 4 3 3 6 9 8 10 16 19 19 17 16 16 16 15 14 13 11 10 9 8 7 7 7 7 7 7 9 11 10 6 5 5 4 5 5 5 5 5 5 5 5 5
5 6 6 8 10 6 4 4 4 6 5 4 12 15 17 17 16 12 10 13 13 15 15 13 11 11 8 7 6 7 6 7 8 9 10 10 6 4 4 4 4 5 5 5 4 4 4 4 4
5 6 8 8 7 3 2 3 3 5 4 9 12 14 15 16 15 12 12 13 14 14 14 12 12 11 10 8 6 5 7 8 9 9 10 11 8 6 5 4 4 4 4 4 4 4 4 3 3
4 6 8 5 2 1 1 4 4 3 7 9 11 12 12 12 13 14 15 15 15 14 13 12 12 11 10 9 7 7 7 8 7 8 10 10 10 8 6 4 3 4 5 5 4 4 4 3 2
3 3 5 6 3 1 2 6 6 4 9 9 9 10 10 10 11 11 11 11 11 12 12 12 12 11 10 9 7 6 7 8 6 8 9 10 10 10 7 4 4 5 6 5 4 3 3 2 2
5 3 4 7 3 3 2 6 6 2 8 8 8 9 9 8 8 8 10 11 11 12 12 12 11 11 11 9 7 6 6 6 6 7 8 9 10 10 8 5 5 7 5 4 4 2 2 2 2
3 2 4 7 5 6 5 6 6 2 5 7 7 7 8 9 9 8 10 10 10 9 10 11 11 11 10 8 6 5 5 4 5 6 8 10 10 10 9 6 6 6 4 3 3 3 2 2 2
3 3 8 10 6 4 5 6 6 2 3 5 7 7 8 8 6 7 9 10 10 9 10 11 11 10 10 8 8 7 6 5 4 5 8 10 10 10 9 5 5 5 5 5 5 3 3 2 2
4 5 8 9 4 1 3 5 4 2 3 5 8 8 9 8 7 8 9 9 10 11 11 11 11 12 11 9 7 6 5 4 4 4 6 9 10 10 9 7 6 5 5 5 4 4 3 2 2
6 6 7 7 7 4 1 6 5 3 1 1 4 6 8 11 10 9 9 10 10 11 12 11 11 10 11 10 6 6 4 3 3 4 4 6 9 10 9 9 7 6 6 6 5 5 5 3 1
7 8 8 6 3 5 1 4 8 4 4 4 4 5 7 8 8 9 10 10 11 11 10 10 10 10 10 11 10 10 8 6 6 5 5 5 7 9 10 9 8 6 5 6 5 4 4 5 3
9 4 3 3 4 2 2 2 8 3 5 7 6 7 6 7 8 9 10 10 10 9 9 9 9 10 11 11 11 10 8 6 4 5 6 6 5 7 8 9 8 6 5 6 5 5 4 3 4
5 4 6 6 5 1 4 3 7 5 7 5 4 5 5 5 6 6 6 7 7 7 8 9 9 9 10 11 11 10 10 8 8 7 7 6 4 4 6 7 7 7 6 6 6 5 6 4 4
5 5 4 5 3 6 3 3 9 7 6 5 5 4 5 5 6 7 8 8 8 8 9 9 10 9 10 10 10 10 10 10 10 9 8 7 5 4 6 6 6 6 6 7 6 6 5 5 5
7 10 8 6 6 5 2 5 8 5 3 3 3 4 5 5 6 7 8 8 8 8 8 10 10 9 9 10 9 9 9 7 6 8 7 8 6 6 6 7 7 7 7 7 6 5 5 5 5
8 7 8 7 3 1 5 7 9 2 2 2 3 4 5 6 7 8 8 8 8 8 8 9 10 9 9 9 8 8 8 8 8 7 7 6 5 6 7 7 7 7 7 7 7 5 5 5 4
6 9 7 7 7 4 5 5 5 6 5 3 4 5 5 5 6 7 8 8 8 7 7 8 8 9 9 9 8 8 7 7 7 7 8 8 7 7 8 7 7 7 6 6 6 5 4 5 4
5 5 6 5 6 7 3 7 6 7 6 6 6 6 6 7 8 8 7 8 8 7 7 7 7 7 8 8 8 7 7 6 6 7 8 8 7 8 8 8 7 7 7 7 6 6 6 6 4
5 7 8 6 4 5 5 7 5 5 5 5 4 4 5 7 8 8 7 8 8 8 8 8 8 7 8 8 7 7 7 7 7 7 7 7 8 8 8 8 7 7 7 7 7 7 6 6 6
Wind_Direction
188 156 147 150 58 43 324 283 265 320 62 107 130 132 139 145 170 185 128 141 139 146 154 154 151 147 142 138 134 131 129 128 127 127 127 127 127 127 126 124 122 121 118 116 114 113 112 112 113
149 154 167 67 72 34 308 287 308 279 147 116 94 99 108 105 98 118 133 145 144 147 152 154 153 150 146 143 139 136 134 131 130 130 129 130 129 129 128 125 124 122 120 118 116 114 114 114 115
162 180 102 71 88 188 272 295 266 89 155 135 105 80 113 139 140 147 151 145 143 146 150 157 156 153 150 147 144 141 138 136 134 133 132 132 131 131 129 126 125 124 123 121 118 117 117 118 119
138 66 57 63 284 235 234 248 207 158 254 51 117 98 72 91 149 148 143 145 145 146 151 160 158 156 154 151 149 146 143 141 139 136 135 133 132 130 128 127 127 125 125 123 121 120 121 121 120
77 80 50 5 289 262 241 228 202 187 200 151 130 130 84 23 112 134 144 148 148 147 152 162 160 159 157 155 153 151 148 145 143 141 139 136 134 132 130 129 129 127 126 125 124 123 122 124 123
57 64 63 323 295 285 269 214 175 179 175 150 140 133 99 94 127 142 146 148 149 150 152 161 161 161 160 159 157 155 153 150 149 146 144 141 137 135 134 133 131 130 129 127 127 124 123 123 123
104 91 138 268 289 299 302 234 168 167 175 183 151 136 134 136 141 141 141 140 144 149 151 157 161 163 163 162 161 159 157 155 154 150 147 144 141 139 138 137 135 134 132 130 128 125 123 123 124
130 101 356 270 270 281 302 358 168 164 185 136 131 157 186 168 141 132 131 137 145 151 154 152 154 158 161 164 164 162 160 160 158 154 151 149 147 144 141 137 138 137 136 134 131 126 123 124 125
103 77 247 237 238 273 307 336 329 120 117 117 138 169 161 142 141 138 140 145 155 159 157 151 148 151 155 160 167 164 164 164 161 159 157 150 142 141 140 143 142 140 140 136 133 129 124 121 125
113 172 233 226 226 271 295 280 212 131 136 164 107 97 132 145 153 157 162 165 167 169 166 158 154 153 155 165 164 161 160 160 157 155 149 140 139 141 144 154 149 146 141 136 131 128 119 111 116
174 209 245 257 250 261 280 278 179 156 209 211 188 158 153 158 165 170 172 172 171 169 170 165 160 156 157 156 153 150 147 148 149 149 144 142 139 139 138 142 140 135 130 121 119 110 108 111 118
201 248 247 272 274 269 244 227 182 191 223 215 173 156 161 168 175 180 179 176 167 170 174 168 163 160 160 153 150 148 147 149 151 153 151 147 141 140 143 142 140 131 127 119 115 110 110 113 128
230 267 266 264 285 263 234 225 207 224 236 143 138 152 169 176 180 179 176 172 169 173 173 172 168 167 163 154 158 159 156 159 161 160 162 160 154 155 155 153 151 148 141 134 131 124 118 111 119
248 265 283 283 288 276 205 255 201 237 158 139 149 165 177 179 178 173 171 174 177 178 176 171 172 172 164 164 161 161 164 164 164 168 171 171 170 166 162 158 159 161 159 153 147 136 125 116 118
295 302 313 299 300 283 73 308 253 204 146 153 166 173 178 180 180 185 185 182 179 176 171 170 173 169 166 167 165 163 166 168 170 175 177 177 176 173 169 163 170 175 165 147 131 117 107 111 112
350 1 324 304 315 321 96 278 283 158 156 170 175 176 177 182 189 191 184 175 170 168 167 169 177 172 169 169 164 162 167 168 173 174 178 182 182 177 169 168 179 173 158 145 134 125 108 111 120
21 348 302 309 324 20 22 274 283 177 172 181 182 179 174 175 186 190 178 167 164 168 170 170 171 172 173 166 165 162 163 164 171 172 175 184 186 181 173 173 174 163 149 147 152 127 128 130 126
254 288 300 295 305 341 317 277 286 239 186 185 181 178 175 182 190 179 168 160 157 163 169 171 170 172 168 162 153 147 152 161 167 176 181 182 184 178 172 166 163 157 145 148 144 125 100 107 124
199 260 281 279 294 313 298 292 290 263 194 188 184 182 181 187 177 158 153 156 157 165 172 176 174 171 168 167 170 171 177 173 177 184 184 182 180 176 170 165 160 161 160 162 150 125 115 100 108
219 269 281 294 332 307 299 300 294 260 218 209 198 192 188 180 170 162 158 161 167 177 181 183 182 177 176 177 174 170 163 166 175 178 177 181 177 177 177 168 169 166 153 147 151 136 123 106 111
238 229 252 268 325 355 323 317 294 286 306 244 205 196 189 186 182 175 170 172 173 180 186 189 185 180 176 167 153 142 128 117 147 173 175 184 179 180 177 174 167 165 161 163 165 156 145 142 111
254 230 224 249 300 296 19 281 286 276 298 257 225 204 197 188 181 179 180 181 183 187 186 183 179 176 173 166 166 167 170 177 185 180 177 174 176 177 176 172 168 164 162 161 168 163 152 143 147
221 224 210 230 200 276 330 197 282 298 273 258 238 213 198 193 185 184 185 187 184 180 179 180 175 175 170 170 174 177 175 179 167 159 166 172 172 175 173 168 164 163 164 163 158 153 154 150 154
201 64 49 50 81 265 257 191 277 249 235 250 236 214 196 191 188 183 178 172 171 168 167 167 169 172 169 169 174 179 175 170 164 166 172 173 170 172 170 168 167 167 166 166 164 160 159 154 147
135 98 23 354 10 249 266 212 253 256 236 231 233 214 189 183 186 180 173 170 167 163 162 161 165 167 166 169 177 182 179 178 178 176 176 173 174 179 180 174 171 170 171 167 159 157 161 159 156
177 151 165 198 222 268 307 239 256 263 245 220 202 186 174 182 177 174 177 172 168 163 161 161 165 167 169 175 183 183 180 180 182 181 175 179 183 181 173 172 174 173 169 164 157 154 163 163 164
153 182 168 141 156 266 281 282 302 282 280 226 192 169 176 181 173 169 169 169 167 165 167 166 165 167 171 177 179 180 180 181 181 180 174 176 175 171 169 172 172 169 165 161 156 158 163 159 166
146 143 109 132 152 221 282 281 262 278 267 240 194 183 185 175 173 167 168 165 164 165 162 161 165 171 174 175 180 183 183 182 179 177 178 179 176 168 166 169 167 165 163 160 156 154 158 156 162
128 116 116 119 148 156 222 268 233 234 232 219 207 188 182 176 175 173 168 164 158 157 159 163 168 171 175 177 178 179 180 178 173 178 183 179 174 169 170 171 168 168 167 164 163 164 162 163 162
162 163 147 149 187 164 169 261 277 246 236 209 202 178 171 169 167 165 164 161 163 165 168 171 175 181 183 177 174 178 177 174 174 183 181 172 170 172 172 168 168 173 172 170 171 169 167 167 169
Height
1495 1495 1495 1496 1499 1505 1504 1495 1487 1486 1484 1483 1484 1485 1487 1490 1495 1499 1494 1495 1500 1504 1509 1513 1516 1519 1522 1524 1526 1528 1530 1532 1534 1535 1537 1538 1540 1541 1542 1543 1544 1546 1547 1547 1548 1549 1550 1551 1552
1495 1495 1496 1497 1503 1514 1506 1491 1488 1485 1484 1484 1485 1486 1487 1489 1490 1491 1492 1496 1501 1505 1509 1513 1517 1520 1523 1525 1527 1529 1531 1533 1535 1537 1538 1540 1541 1543 1544 1545 1546 1547 1548 1549 1550 1551 1552 1553 1554
1495 1495 1497 1498 1505 1510 1501 1489 1486 1484 1484 1484 1485 1486 1488 1489 1489 1490 1492 1497 1502 1506 1510 1514 1517 1520 1523 1526 1528 1530 1532 1534 1536 1538 1540 1542 1543 1545 1546 1547 1548 1549 1550 1551 1552 1553 1554 1555 1557
1496 1497 1498 1502 1504 1498 1492 1486 1485 1485 1485 1485 1485 1487 1488 1490 1490 1492 1494 1498 1502 1507 1511 1514 1518 1521 1524 1527 1529 1531 1533 1536 1538 1539 1541 1543 1545 1546 1547 1549 1550 1551 1552 1553 1554 1556 1557 1558 1559
1496 1497 1502 1507 1502 1493 1485 1483 1483 1484 1485 1485 1486 1487 1489 1491 1491 1493 1495 1499 1503 1507 1511 1515 1518 1522 1525 1527 1530 1532 1535 1537 1539 1541 1543 1545 1546 1548 1549 1550 1552 1553 1554 1555 1556 1558 1559 1560 1561
1497 1497 1509 1512 1501 1489 1482 1481 1481 1482 1484 1485 1486 1487 1489 1490 1492 1494 1497 1500 1504 1508 1512 1516 1519 1522 1525 1528 1531 1533 1536 1538 1540 1542 1544 1546 1548 1549 1551 1552 1553 1555 1556 1557 1558 1560 1561 1562 1564
1498 1502 1508 1506 1502 1491 1482 1480 1480 1481 1483 1484 1485 1487 1488 1490 1492 1495 1498 1501 1505 1509 1513 1516 1519 1523 1526 1529 1532 1534 1537 1539 1541 1543 1545 1547 1549 1551 1552 1554 1555 1556 1558 1559 1560 1562 1563 1564 1566
1496 1501 1505 1505 1500 1492 1482 1481 1481 1481 1482 1483 1485 1486 1486 1488 1491 1495 1498 1502 1506 1509 1513 1516 1519 1523 1526 1529 1532 1535 1537 1540 1542 1544 1546 1548 1550 1552 1553 1555 1556 1558 1559 1560 1562 1563 1564 1566 1568
1496 1505 1509 1502 1496 1488 1481 1481 1481 1481 1482 1483 1483 1484 1485 1487 1489 1493 1497 1501 1505 1509 1512 1516 1519 1523 1526 1529 1532 1535 1538 1540 1543 1545 1547 1549 1551 1553 1554 1556 1558 1559 1560 1562 1563 1564 1566 1568 1569
1496 1506 1500 1490 1487 1483 1480 1480 1480 1481 1482 1482 1482 1483 1483 1485 1488 1490 1493 1497 1502 1506 1511 1515 1519 1523 1526 1530 1533 1535 1538 1541 1543 1545 1547 1549 1551 1553 1555 1557 1558 1560 1562 1563 1564 1566 1567 1569 1570
1493 1496 1489 1484 1482 1481 1479 1478 1478 1479 1481 1478 1478 1479 1481 1484 1487 1489 1491 1494 1499 1505 1510 1514 1518 1522 1526 1529 1532 1535 1538 1540 1543 1545 1548 1550 1552 1554 1556 1557 1559 1561 1562 1564 1565 1567 1568 1570 1572
1491 1488 1486 1482 1479 1478 1477 1476 1476 1476 1475 1474 1475 1477 1479 1482 1485 1487 1490 1493 1497 1503 1508 1512 1516 1521 1525 1528 1532 1535 1537 1540 1543 1546 1548 1550 1552 1554 1556 1558 1560 1561 1563 1565 1566 1568 1569 1571 1573
1489 1485 1482 1479 1477 1475 1474 1474 1474 1473 1473 1473 1475 1477 1479 1481 1483 1487 1488 1492 1496 1500 1505 1510 1514 1519 1524 1527 1531 1534 1537 1540 1543 1546 1548 1550 1552 1554 1556 1558 1560 1562 1564 1565 1567 1569 1570 1572 1573
1485 1483 1480 1477 1474 1473 1473 1473 1473 1471 1472 1472 1474 1476 1478 1480 1483 1486 1489 1491 1495 1499 1504 1508 1513 1518 1522 1526 1530 1534 1537 1540 1543 1546 1548 1550 1553 1555 1557 1558 1561 1562 1564 1566 1568 1569 1571 1572 1574
1484 1483 1479 1475 1473 1473 1473 1475 1471 1470 1471 1472 1473 1475 1477 1480 1482 1484 1487 1490 1494 1498 1503 1507 1512 1516 1520 1525 1529 1533 1536 1539 1543 1545 1548 1550 1553 1555 1557 1559 1561 1563 1565 1566 1568 1569 1571 1573 1574
1484 1487 1489 1478 1474 1473 1477 1482 1470 1469 1470 1471 1472 1474 1477 1479 1481 1483 1486 1490 1494 1498 1502 1506 1511 1515 1519 1523 1528 1532 1535 1539 1542 1545 1548 1550 1552 1555 1557 1559 1561 1563 1564 1566 1568 1569 1571 1572 1574
1493 1497 1493 1483 1474 1474 1477 1480 1470 1469 1469 1470 1471 1473 1475 1478 1480 1481 1484 1488 1492 1496 1501 1504 1508 1513 1517 1522 1527 1531 1534 1538 1541 1544 1547 1550 1552 1554 1556 1558 1560 1562 1564 1566 1568 1569 1571 1572 1573
1499 1496 1493 1489 1477 1476 1478 1477 1470 1469 1468 1469 1471 1472 1474 1476 1477 1479 1483 1486 1491 1495 1499 1503 1506 1511 1516 1520 1524 1529 1533 1536 1540 1543 1546 1549 1551 1554 1556 1558 1560 1562 1563 1565 1567 1569 1570 1572 1573
1489 1492 1495 1486 1476 1478 1479 1477 1472 1469 1469 1469 1469 1471 1472 1473 1476 1478 1481 1485 1489 1493 1497 1500 1503 1508 1512 1516 1520 1525 1529 1534 1538 1541 1544 1547 1550 1553 1555 1557 1559 1561 1563 1565 1566 1568 1569 1571 1572
1488 1493 1492 1483 1475 1477 1479 1477 1471 1469 1468 1468 1468 1469 1470 1471 1474 1476 1479 1483 1486 1489 1493 1497 1501 1505 1509 1513 1518 1522 1527 1531 1535 1539 1542 1545 1548 1551 1553 1556 1558 1560 1562 1564 1565 1567 1569 1570 1572
1487 1491 1489 1487 1479 1477 1480 1482 1474 1468 1468 1467 1467 1467 1468 1469 1471 1475 1478 1481 1484 1487 1491 1494 1498 1502 1506 1511 1516 1521 1525 1529 1533 1536 1539 1543 1546 1549 1552 1554 1557 1559 1561 1562 1564 1566 1568 1569 1571
1489 1479 1480 1482 1489 1494 1486 1500 1480 1471 1469 1466 1466 1466 1466 1468 1470 1473 1475 1478 1481 1484 1487 1491 1495 1499 1503 1508 1513 1517 1521 1525 1529 1533 1537 1541 1544 1547 1550 1553 1555 1557 1559 1561 1563 1565 1567 1568 1570
1477 1472 1476 1479 1487 1494 1491 1498 1488 1474 1472 1466 1463 1463 1465 1467 1469 1471 1474 1476 1479 1482 1485 1489 1493 1497 1501 1506 1510 1515 1519 1524 1528 1532 1535 1539 1542 1545 1548 1550 1553 1555 1558 1560 1562 1563 1565 1567 1568
1467 1473 1481 1489 1496 1505 1494 1497 1492 1477 1468 1463 1461 1462 1464 1466 1468 1470 1473 1476 1478 1481 1483 1486 1490 1494 1498 1503 1508 1512 1516 1521 1525 1529 1532 1536 1540 1543 1545 1548 1551 1553 1556 1558 1560 1562 1564 1565 1567
1469 1487 1505 1505 1513 1509 1492 1494 1488 1465 1461 1460 1460 1461 1462 1465 1467 1469 1472 1474 1476 1479 1482 1485 1489 1492 1496 1501 1505 1510 1514 1518 1522 1526 1530 1533 1537 1540 1543 1545 1548 1551 1554 1556 1558 1560 1562 1564 1565
1470 1480 1503 1512 1513 1506 1494 1494 1476 1459 1457 1457 1458 1460 1461 1463 1465 1468 1471 1473 1476 1478 1481 1484 1488 1491 1495 1499 1503 1508 1512 1516 1520 1524 1527 1531 1534 1538 1541 1543 1546 1549 1552 1554 1556 1558 1560 1562 1564
1468 1476 1474 1495 1501 1505 1498 1486 1469 1457 1457 1456 1457 1459 1460 1462 1464 1467 1470 1472 1475 1478 1481 1484 1487 1490 1493 1497 1502 1506 1510 1514 1518 1521 1525 1528 1532 1535 1538 1541 1544 1547 1549 1552 1554 1556 1558 1560 1562
1455 1466 1482 1494 1508 1509 1497 1489 1481 1462 1458 1456 1457 1458 1460 1462 1464 1466 1469 1471 1474 1477 1480 1484 1486 1489 1492 1496 1499 1503 1508 1511 1515 1519 1522 1526 1529 1532 1535 1539 1541 1544 1547 1549 1552 1554 1556 1558 1560
1460 1467 1477 1489 1492 1505 1505 1492 1462 1459 1455 1455 1455 1457 1459 1461 1463 1465 1468 1470 1473 1476 1479 1482 1485 1488 1491 1494 1498 1501 1505 1509 1513 1516 1520 1523 1527 1530 1533 1536 1539 1542 1544 1547 1549 1552 1554 1556 1557
1450 1458 1470 1482 1489 1494 1497 1488 1453 1453 1452 1452 1454 1457 1459 1461 1463 1465 1467 1470 1473 1475 1477 1480 1483 1486 1489 1492 1495 1499 1503 1507 1510 1514 1517 1521 1524 1528 1531 1534 1537 1540 1542 1545 1548 1550 1552 1554 1555